IQ8VX-3 Weather Reports


Display with metric or nautical units.
time (UTC)temp
F
wind
direction
speed
MPH
gust
MPH
rain 1hr
in
rain 24hr
in
rain mn
in
humidity
%
barometer
mb
20260906071608 81 0.0 0.0 0.00 0.00 0.00 99 1726.5
20260906065605 84 0.0 0.0 0.00 0.00 0.00 99 1729.6
20260906063601 84 0.0 0.0 0.00 0.00 0.00 99 1730.4
20260906061558 85 0.0 0.0 0.00 0.00 0.00 99 1731.0
20260906055555 87 0.0 0.0 0.00 0.00 0.00 99 1735.2
20260906053552 81 0.0 0.0 0.00 0.00 0.00 99 1725.9
20260906051548 80 0.0 0.0 0.00 0.00 0.00 99 1724.0
20260906045545 79 0.0 0.0 0.00 0.00 0.00 99 1723.3
20260906043542 79 0.0 0.0 0.00 0.00 0.00 99 1722.7
20260906041538 79 0.0 0.0 0.00 0.00 0.00 99 1722.7
20260906035536 79 0.0 0.0 0.00 0.00 0.00 99 1722.4
20260906033532 79 0.0 0.0 0.00 0.00 0.00 99 1722.2
20260906031528 79 0.0 0.0 0.00 0.00 0.00 99 1722.4
20260906025525 79 0.0 0.0 0.00 0.00 0.00 99 1723.2
20260906023522 79 0.0 0.0 0.00 0.00 0.00 99 1723.4
20260906021518 79 0.0 0.0 0.00 0.00 0.00 99 1723.2
20260905220943 78 0.0 0.0 0.00 0.00 0.00 99
20260905214943 81 0.0 0.0 0.00 0.00 0.00 99
20260905212943 81 0.0 0.0 0.00 0.00 0.00 99
20260905210943 81 0.0 0.0 0.00 0.00 0.00 99
20260905204942 81 0.0 0.0 0.00 0.00 0.00 99
20260905202942 81 0.0 0.0 0.00 0.00 0.00 99
20260905200942 81 0.0 0.0 0.00 0.00 0.00 99
20260905194941 81 0.0 0.0 0.00 0.00 0.00 99
20260905192941 81 0.0 0.0 0.00 0.00 0.00 96
20260905190941 81 0.0 0.0 0.00 0.00 0.00 96
20260905184940 81 0.0 0.0 0.00 0.00 0.00 96
20260905182940 81 0.0 0.0 0.00 0.00 0.00 96
20260905180940 87 0.0 0.0 0.00 0.00 0.00 88
20260905174940 87 0.0 0.0 0.00 0.00 0.00 88
20260905172939 87 0.0 0.0 0.00 0.00 0.00 88
20260905170939 87 0.0 0.0 0.00 0.00 0.00 88
20260905164939 87 0.0 0.0 0.00 0.00 0.00 88
20260905162938 87 0.0 0.0 0.00 0.00 0.00 88
20260905160938 87 0.0 0.0 0.00 0.00 0.00 88
20260905154938 87 0.0 0.0 0.00 0.00 0.00 87 1734.4
20260905152937 88 0.0 0.0 0.00 0.00 0.00 85 1736.0
20260905150937 88 0.0 0.0 0.00 0.00 0.00 85 1735.6
20260905144936 89 0.0 0.0 0.00 0.00 0.00 81 1736.9
20260905142936 89 0.0 0.0 0.00 0.00 0.00 80 1737.0
20260905140936 89 0.0 0.0 0.00 0.00 0.00 81 1736.4
20260905134936 88 0.0 0.0 0.00 0.00 0.00 82 1735.6
20260905132935 89 0.0 0.0 0.00 0.00 0.00 82 1737.0
20260905130935 88 0.0 0.0 0.00 0.00 0.00 85 1735.8
20260905124935 89 0.0 0.0 0.00 0.00 0.00 81 1736.8
20260905122934 88 0.0 0.0 0.00 0.00 0.00 85 1736.3
20260905120934 89 0.0 0.0 0.00 0.00 0.00 87 1736.7
20260905114934 87 0.0 0.0 0.00 0.00 0.00 87 1734.5
20260905112933 89 0.0 0.0 0.00 0.00 0.00 87 1736.5
20260905110933 88 0.0 0.0 0.00 0.00 0.00 86 1735.7
20260905104933 91 0.0 0.0 0.00 0.00 0.00 83 1740.0
20260905102933 88 0.0 0.0 0.00 0.00 0.00 85 1735.8
20260905100931 93 0.0 0.0 0.00 0.00 0.00 80 1743.8
20260905094931 88 0.0 0.0 0.00 0.00 0.00 87 1735.8
20260905092931 86 0.0 0.0 0.00 0.00 0.00 90 1733.3
20260905090931 88 0.0 0.0 0.00 0.00 0.00 85 1736.2
20260905084930 87 0.0 0.0 0.00 0.00 0.00 89 1734.6
20260905082930 88 0.0 0.0 0.00 0.00 0.00 96 1736.3
20260905080929 82 0.0 0.0 0.00 0.00 0.00 99 1727.6
20260905074926 83 0.0 0.0 0.00 0.00 0.00 96 1727.9